GLO1810 SBBR-SBRJ

Flight info

Callsign GLO1810
Flight time 1h 20m
Altitude 31000
Route GEPMO UZ6 TOKIM
Aircraft B738/M-SDE2E3FGHIRWXY/LB1

Departure

Time 2026-05-07 19:39
Airport Presidente Juscelino Kubitschek International Airport (SBBR)

Arrival

Time 2026-05-07 20:59
Airport Santos Dumont Airport (SBRJ)
Time Latitude Longitude Altitude Speed Heading
2026-05-07 19:13 -15.86855 -47.91829 3464 ft 0 kts 356°
2026-05-07 19:26 -15.86858 -47.91829 3464 ft 2 kts 355°
2026-05-07 19:26 -15.86874 -47.91828 3461 ft 2 kts 355°
2026-05-07 19:27 -15.86891 -47.91826 3463 ft 2 kts 356°
2026-05-07 19:27 -15.86907 -47.91828 3463 ft 2 kts 59°
2026-05-07 19:27 -15.86911 -47.91842 3461 ft 1 kts 87°
2026-05-07 19:27 -15.86911 -47.91845 3461 ft 0 kts 88°
2026-05-07 19:30 -15.86910 -47.91835 3463 ft 6 kts 86°
2026-05-07 19:30 -15.86907 -47.91769 3464 ft 10 kts 85°
2026-05-07 19:31 -15.86902 -47.91696 3464 ft 10 kts 86°
2026-05-07 19:31 -15.86900 -47.91625 3464 ft 10 kts 102°
2026-05-07 19:31 -15.86957 -47.91600 3464 ft 9 kts 176°
2026-05-07 19:31 -15.87037 -47.91594 3463 ft 14 kts 176°
2026-05-07 19:32 -15.87150 -47.91587 3463 ft 18 kts 176°
2026-05-07 19:32 -15.87280 -47.91579 3463 ft 19 kts 177°
2026-05-07 19:32 -15.87406 -47.91569 3463 ft 18 kts 176°
2026-05-07 19:32 -15.87528 -47.91561 3460 ft 17 kts 176°
2026-05-07 19:33 -15.87642 -47.91553 3460 ft 16 kts 176°
2026-05-07 19:33 -15.87729 -47.91596 3459 ft 15 kts 257°
2026-05-07 19:33 -15.87738 -47.91705 3461 ft 15 kts 266°
2026-05-07 19:33 -15.87745 -47.91808 3463 ft 14 kts 266°
2026-05-07 19:34 -15.87752 -47.91919 3466 ft 17 kts 266°
2026-05-07 19:34 -15.87760 -47.92047 3469 ft 19 kts 266°
2026-05-07 19:34 -15.87769 -47.92190 3471 ft 21 kts 266°
2026-05-07 19:34 -15.87779 -47.92348 3473 ft 23 kts 266°
2026-05-07 19:35 -15.87790 -47.92519 3474 ft 25 kts 266°
2026-05-07 19:35 -15.87802 -47.92705 3475 ft 27 kts 266°
2026-05-07 19:35 -15.87815 -47.92902 3481 ft 28 kts 266°
2026-05-07 19:35 -15.87828 -47.93108 3484 ft 28 kts 266°
2026-05-07 19:36 -15.87841 -47.93304 3494 ft 26 kts 266°
2026-05-07 19:36 -15.87853 -47.93484 3502 ft 25 kts 266°
2026-05-07 19:36 -15.87863 -47.93656 3507 ft 23 kts 266°
2026-05-07 19:36 -15.87874 -47.93818 3508 ft 22 kts 266°
2026-05-07 19:37 -15.87897 -47.93972 3511 ft 21 kts 232°
2026-05-07 19:37 -15.87972 -47.93994 3511 ft 7 kts 176°
2026-05-07 19:37 -15.88022 -47.93990 3510 ft 8 kts 168°
2026-05-07 19:37 -15.88060 -47.93941 3512 ft 10 kts 102°
2026-05-07 19:38 -15.88059 -47.93867 3510 ft 12 kts 86°
2026-05-07 19:38 -15.88036 -47.93528 3501 ft 87 kts 86°
2026-05-07 19:38 -15.87979 -47.92639 3478 ft 157 kts 86°
2026-05-07 19:38 -15.87877 -47.91320 3665 ft 199 kts 82°
2026-05-07 19:39 -15.87764 -47.89880 4544 ft 207 kts 87°
2026-05-07 19:39 -15.88186 -47.88328 4592 ft 255 kts 121°
2026-05-07 19:39 -15.89492 -47.87045 5243 ft 263 kts 149°
2026-05-07 19:39 -15.90669 -47.86620 5491 ft 281 kts 170°
2026-05-07 19:40 -15.93536 -47.86585 5384 ft 334 kts 180°
2026-05-07 19:40 -15.95135 -47.86594 5384 ft 354 kts 177°
2026-05-07 19:40 -15.98374 -47.86297 6754 ft 341 kts 170°
2026-05-07 19:40 -16.00635 -47.85880 8101 ft 323 kts 167°
2026-05-07 19:41 -16.02085 -47.85564 8778 ft 319 kts 167°
2026-05-07 19:41 -16.04919 -47.84910 9067 ft 309 kts 166°
2026-05-07 19:41 -16.06307 -47.84549 9026 ft 307 kts 160°
2026-05-07 19:41 -16.08655 -47.82993 9229 ft 302 kts 138°
2026-05-07 19:42 -16.09713 -47.82038 9634 ft 305 kts 137°
2026-05-07 19:42 -16.11313 -47.80560 10375 ft 308 kts 136°
2026-05-07 19:42 -16.12968 -47.79021 10636 ft 330 kts 136°
2026-05-07 19:42 -16.14736 -47.77378 10788 ft 353 kts 137°
2026-05-07 19:43 -16.16623 -47.75634 10941 ft 373 kts 137°
2026-05-07 19:43 -16.18584 -47.73828 11279 ft 385 kts 137°
2026-05-07 19:43 -16.20620 -47.71961 11889 ft 388 kts 137°
2026-05-07 19:43 -16.22656 -47.70097 12557 ft 389 kts 137°
2026-05-07 19:44 -16.24691 -47.68234 13125 ft 393 kts 137°
2026-05-07 19:44 -16.26749 -47.66350 13682 ft 397 kts 137°
2026-05-07 19:44 -16.28821 -47.64453 14215 ft 399 kts 137°
2026-05-07 19:44 -16.30924 -47.62528 14754 ft 400 kts 137°
2026-05-07 19:45 -16.33000 -47.60627 15309 ft 401 kts 137°
2026-05-07 19:45 -16.35108 -47.58694 15861 ft 402 kts 137°
2026-05-07 19:45 -16.37213 -47.56765 16379 ft 403 kts 138°
2026-05-07 19:45 -16.39301 -47.54850 16876 ft 405 kts 138°
2026-05-07 19:46 -16.41445 -47.52884 17366 ft 407 kts 138°
2026-05-07 19:46 -16.43554 -47.50948 17862 ft 408 kts 138°
2026-05-07 19:46 -16.45702 -47.48976 18313 ft 410 kts 138°
2026-05-07 19:46 -16.47827 -47.47025 18665 ft 413 kts 138°
2026-05-07 19:47 -16.49993 -47.45036 19050 ft 414 kts 139°
2026-05-07 19:47 -16.52163 -47.43043 19446 ft 416 kts 139°
2026-05-07 19:47 -16.54338 -47.41043 19820 ft 418 kts 139°
2026-05-07 19:47 -16.56531 -47.39028 20178 ft 420 kts 139°
2026-05-07 19:48 -16.58708 -47.37026 20539 ft 422 kts 139°
2026-05-07 19:48 -16.60931 -47.34981 20896 ft 424 kts 139°
2026-05-07 19:48 -16.63128 -47.32959 21248 ft 425 kts 139°
2026-05-07 19:48 -16.65364 -47.30901 21588 ft 427 kts 139°
2026-05-07 19:49 -16.67585 -47.28855 21923 ft 429 kts 139°
2026-05-07 19:49 -16.69827 -47.26790 22263 ft 431 kts 139°
2026-05-07 19:49 -16.72067 -47.24726 22584 ft 433 kts 139°
2026-05-07 19:49 -16.74335 -47.22635 22899 ft 434 kts 139°
2026-05-07 19:50 -16.76612 -47.20536 23215 ft 436 kts 139°
2026-05-07 19:50 -16.78867 -47.18455 23535 ft 437 kts 139°
2026-05-07 19:50 -16.81147 -47.16351 23772 ft 439 kts 139°
2026-05-07 19:50 -16.83457 -47.14220 24008 ft 441 kts 139°
2026-05-07 19:51 -16.85846 -47.12245 24220 ft 442 kts 150°
2026-05-07 19:51 -16.88617 -47.10827 24460 ft 443 kts 156°
2026-05-07 19:51 -16.91409 -47.09506 24711 ft 444 kts 156°
2026-05-07 19:51 -16.94252 -47.08161 24934 ft 446 kts 156°
2026-05-07 19:52 -16.97058 -47.06823 25150 ft 448 kts 156°
2026-05-07 19:52 -16.99907 -47.05450 25379 ft 450 kts 156°
2026-05-07 19:52 -17.02760 -47.04064 25597 ft 451 kts 155°
2026-05-07 19:52 -17.05569 -47.02693 25818 ft 453 kts 155°
2026-05-07 19:53 -17.08430 -47.01292 26037 ft 454 kts 155°
2026-05-07 19:53 -17.11314 -46.99878 26255 ft 456 kts 155°
2026-05-07 19:53 -17.14207 -46.98458 26478 ft 457 kts 155°
2026-05-07 19:53 -17.17068 -46.97054 26688 ft 459 kts 155°
2026-05-07 19:54 -17.19974 -46.95627 26889 ft 460 kts 156°
2026-05-07 19:54 -17.22884 -46.94199 27083 ft 462 kts 156°
2026-05-07 19:54 -17.25773 -46.92779 27288 ft 463 kts 156°
2026-05-07 19:54 -17.28698 -46.91342 27588 ft 462 kts 156°
2026-05-07 19:55 -17.31613 -46.89910 27934 ft 460 kts 156°
2026-05-07 19:55 -17.34524 -46.88479 28255 ft 459 kts 156°
2026-05-07 19:55 -17.37387 -46.87071 28526 ft 460 kts 156°
2026-05-07 19:55 -17.40295 -46.85641 28798 ft 460 kts 156°
2026-05-07 19:56 -17.43182 -46.84220 29142 ft 458 kts 156°
2026-05-07 19:56 -17.46081 -46.82793 29492 ft 457 kts 156°
2026-05-07 19:56 -17.48922 -46.81395 29826 ft 456 kts 156°
2026-05-07 19:56 -17.51805 -46.79975 30123 ft 456 kts 156°
2026-05-07 19:57 -17.54682 -46.78557 30414 ft 455 kts 156°
2026-05-07 19:57 -17.57563 -46.77137 30491 ft 458 kts 156°
2026-05-07 19:57 -17.63319 -46.74299 30434 ft 456 kts 156°
2026-05-07 19:58 -17.69047 -46.71472 30579 ft 457 kts 156°
2026-05-07 19:58 -17.71935 -46.70046 30896 ft 454 kts 156°
2026-05-07 19:58 -17.74761 -46.68650 30961 ft 453 kts 156°
2026-05-07 19:59 -17.80456 -46.65835 30976 ft 451 kts 156°
2026-05-07 19:59 -17.86127 -46.63030 30986 ft 451 kts 156°
2026-05-07 20:00 -17.91823 -46.60212 30993 ft 451 kts 156°
2026-05-07 20:00 -17.97486 -46.57407 30988 ft 451 kts 156°
2026-05-07 20:01 -18.03151 -46.54599 30989 ft 451 kts 156°
2026-05-07 20:01 -18.08808 -46.51793 30995 ft 451 kts 156°
2026-05-07 20:02 -18.14494 -46.48971 30993 ft 451 kts 156°
2026-05-07 20:02 -18.20179 -46.46147 31002 ft 451 kts 157°
2026-05-07 20:03 -18.25848 -46.43329 30996 ft 451 kts 156°
2026-05-07 20:03 -18.31535 -46.40500 30992 ft 451 kts 157°
2026-05-07 20:04 -18.37214 -46.37673 31006 ft 451 kts 157°
2026-05-07 20:04 -18.42842 -46.34869 31010 ft 451 kts 157°
2026-05-07 20:05 -18.48556 -46.32020 31008 ft 451 kts 157°
2026-05-07 20:05 -18.54213 -46.29197 31007 ft 452 kts 157°
2026-05-07 20:06 -18.59920 -46.26347 31014 ft 452 kts 157°
2026-05-07 20:06 -18.65569 -46.23522 31010 ft 452 kts 157°
2026-05-07 20:07 -18.71266 -46.20670 31010 ft 452 kts 157°
2026-05-07 20:07 -18.76963 -46.17817 31006 ft 452 kts 157°
2026-05-07 20:08 -18.82628 -46.14977 31015 ft 452 kts 157°
2026-05-07 20:08 -18.88295 -46.12134 31021 ft 452 kts 157°
2026-05-07 20:09 -18.93989 -46.09275 31016 ft 452 kts 157°
2026-05-07 20:10 -19.02495 -46.05000 31013 ft 452 kts 157°
2026-05-07 20:10 -19.08195 -46.02132 31023 ft 452 kts 157°
2026-05-07 20:11 -19.13845 -45.99288 31020 ft 452 kts 157°
2026-05-07 20:11 -19.19464 -45.96251 31014 ft 453 kts 153°
2026-05-07 20:12 -19.24881 -45.92923 31025 ft 453 kts 152°
2026-05-07 20:12 -19.30339 -45.89548 31019 ft 452 kts 153°
2026-05-07 20:13 -19.35782 -45.86229 31013 ft 452 kts 153°
2026-05-07 20:13 -19.41223 -45.82927 31007 ft 451 kts 153°
2026-05-07 20:14 -19.46661 -45.79623 31011 ft 451 kts 153°
2026-05-07 20:14 -19.52126 -45.76295 31003 ft 452 kts 152°
2026-05-07 20:15 -19.57521 -45.72890 31010 ft 452 kts 152°
2026-05-07 20:15 -19.62881 -45.69455 31006 ft 452 kts 152°
2026-05-07 20:16 -19.68272 -45.66007 31002 ft 452 kts 152°
2026-05-07 20:16 -19.73649 -45.62577 31005 ft 452 kts 152°
2026-05-07 20:17 -19.79041 -45.59139 31002 ft 452 kts 152°
2026-05-07 20:17 -19.84418 -45.55707 30996 ft 452 kts 152°
2026-05-07 20:18 -19.89817 -45.52257 31003 ft 452 kts 152°
2026-05-07 20:18 -19.95216 -45.48805 31011 ft 452 kts 152°
2026-05-07 20:19 -20.00593 -45.45363 31012 ft 452 kts 152°
2026-05-07 20:19 -20.05993 -45.41904 31009 ft 453 kts 152°
2026-05-07 20:20 -20.11373 -45.38455 31009 ft 453 kts 152°
2026-05-07 20:20 -20.16760 -45.34950 31017 ft 454 kts 152°
2026-05-07 20:21 -20.22161 -45.31400 31020 ft 454 kts 152°
2026-05-07 20:21 -20.27499 -45.27891 31026 ft 453 kts 152°
2026-05-07 20:22 -20.32850 -45.24377 31024 ft 453 kts 152°
2026-05-07 20:22 -20.38212 -45.20854 31030 ft 453 kts 152°
2026-05-07 20:23 -20.43570 -45.17332 31031 ft 452 kts 152°
2026-05-07 20:23 -20.48961 -45.13784 31030 ft 452 kts 152°
2026-05-07 20:24 -20.54304 -45.10265 31037 ft 452 kts 152°
2026-05-07 20:24 -20.59650 -45.06741 31029 ft 452 kts 152°
2026-05-07 20:25 -20.64998 -45.03213 31039 ft 452 kts 152°
2026-05-07 20:25 -20.70344 -44.99682 31043 ft 453 kts 152°
2026-05-07 20:26 -20.75703 -44.96144 31041 ft 453 kts 152°
2026-05-07 20:26 -20.81075 -44.92627 31041 ft 453 kts 152°
2026-05-07 20:27 -20.86482 -44.89090 31041 ft 454 kts 152°
2026-05-07 20:27 -20.91851 -44.85571 31041 ft 454 kts 152°
2026-05-07 20:28 -20.97233 -44.82038 31039 ft 454 kts 152°
2026-05-07 20:28 -21.02638 -44.78486 31046 ft 455 kts 152°
2026-05-07 20:29 -21.07113 -44.75563 31042 ft 454 kts 153°
2026-05-07 20:29 -21.12556 -44.72125 31044 ft 454 kts 153°
2026-05-07 20:30 -21.17995 -44.68687 31039 ft 455 kts 153°
2026-05-07 20:30 -21.23412 -44.65161 31041 ft 456 kts 151°
2026-05-07 20:31 -21.28800 -44.61555 31045 ft 455 kts 152°
2026-05-07 20:31 -21.34188 -44.57981 31041 ft 456 kts 152°
2026-05-07 20:31 -21.36897 -44.56192 30840 ft 459 kts 152°
2026-05-07 20:32 -21.39598 -44.54411 30205 ft 460 kts 152°
2026-05-07 20:32 -21.42326 -44.52610 29570 ft 455 kts 152°
2026-05-07 20:32 -21.45016 -44.50831 29004 ft 450 kts 151°
2026-05-07 20:32 -21.47649 -44.49089 28466 ft 446 kts 151°
2026-05-07 20:33 -21.50261 -44.47360 27930 ft 441 kts 151°
2026-05-07 20:33 -21.52871 -44.45631 27394 ft 437 kts 151°
2026-05-07 20:33 -21.55432 -44.43935 26881 ft 433 kts 151°
2026-05-07 20:33 -21.57997 -44.42236 26349 ft 430 kts 151°
2026-05-07 20:34 -21.60515 -44.40567 25835 ft 427 kts 151°
2026-05-07 20:34 -21.63055 -44.38883 25297 ft 425 kts 150°
2026-05-07 20:34 -21.65540 -44.37234 24780 ft 423 kts 150°
2026-05-07 20:34 -21.68058 -44.35563 24248 ft 421 kts 150°
2026-05-07 20:35 -21.70547 -44.33911 23732 ft 419 kts 150°
2026-05-07 20:35 -21.73034 -44.32259 23126 ft 418 kts 150°
2026-05-07 20:35 -21.75472 -44.30639 22590 ft 414 kts 150°
2026-05-07 20:35 -21.77925 -44.29007 22068 ft 411 kts 150°
2026-05-07 20:36 -21.80351 -44.27393 21749 ft 403 kts 149°
2026-05-07 20:36 -21.82692 -44.25834 21575 ft 393 kts 150°
2026-05-07 20:36 -21.84997 -44.24298 21408 ft 387 kts 149°
2026-05-07 20:36 -21.87298 -44.22768 21263 ft 397 kts 150°
2026-05-07 20:37 -21.89660 -44.21196 21087 ft 402 kts 149°
2026-05-07 20:37 -21.92048 -44.19606 20906 ft 395 kts 150°
2026-05-07 20:37 -21.94439 -44.18213 20346 ft 394 kts 156°
2026-05-07 20:37 -21.96966 -44.17036 19945 ft 389 kts 159°
2026-05-07 20:38 -21.99447 -44.15975 19559 ft 385 kts 159°
2026-05-07 20:38 -22.01912 -44.14932 19186 ft 381 kts 158°
2026-05-07 20:38 -22.04375 -44.13875 18775 ft 378 kts 158°
2026-05-07 20:38 -22.06788 -44.12818 18389 ft 375 kts 157°
2026-05-07 20:39 -22.09209 -44.11742 17950 ft 372 kts 156°
2026-05-07 20:39 -22.11568 -44.10682 17560 ft 368 kts 156°
2026-05-07 20:39 -22.13935 -44.09614 17162 ft 365 kts 156°
2026-05-07 20:39 -22.16277 -44.08554 16783 ft 362 kts 156°
2026-05-07 20:40 -22.18563 -44.07518 16396 ft 359 kts 156°
2026-05-07 20:40 -22.20869 -44.06473 16027 ft 356 kts 156°
2026-05-07 20:40 -22.23131 -44.05446 15673 ft 353 kts 156°
2026-05-07 20:40 -22.25398 -44.04417 15292 ft 351 kts 156°
2026-05-07 20:41 -22.27653 -44.03395 14922 ft 350 kts 156°
2026-05-07 20:41 -22.29867 -44.02389 14556 ft 348 kts 156°
2026-05-07 20:41 -22.32100 -44.01375 14188 ft 346 kts 156°
2026-05-07 20:41 -22.34323 -44.00366 13813 ft 345 kts 156°
2026-05-07 20:42 -22.36539 -43.99358 13415 ft 343 kts 156°
2026-05-07 20:42 -22.38720 -43.98367 13056 ft 340 kts 156°
2026-05-07 20:42 -22.40902 -43.97375 12685 ft 338 kts 156°
2026-05-07 20:42 -22.43054 -43.96396 12323 ft 336 kts 156°
2026-05-07 20:43 -22.45207 -43.95418 11967 ft 334 kts 156°
2026-05-07 20:43 -22.47326 -43.94456 11615 ft 332 kts 156°
2026-05-07 20:43 -22.49320 -43.93238 11315 ft 326 kts 136°
2026-05-07 20:43 -22.50773 -43.91436 11112 ft 317 kts 125°
2026-05-07 20:44 -22.52071 -43.89526 10868 ft 312 kts 123°
2026-05-07 20:44 -22.53322 -43.87634 10607 ft 302 kts 123°
2026-05-07 20:44 -22.54518 -43.85822 10372 ft 294 kts 123°
2026-05-07 20:44 -22.55699 -43.84040 10124 ft 286 kts 123°
2026-05-07 20:45 -22.56835 -43.82335 9883 ft 278 kts 123°
2026-05-07 20:45 -22.57953 -43.80661 9642 ft 268 kts 123°
2026-05-07 20:45 -22.59026 -43.79061 9395 ft 256 kts 123°
2026-05-07 20:45 -22.60046 -43.77541 9127 ft 248 kts 123°
2026-05-07 20:46 -22.61051 -43.76044 8876 ft 244 kts 122°
2026-05-07 20:46 -22.62048 -43.74561 8624 ft 241 kts 122°
2026-05-07 20:46 -22.63018 -43.73114 8356 ft 237 kts 123°
2026-05-07 20:46 -22.63976 -43.71688 8114 ft 230 kts 122°
2026-05-07 20:47 -22.64907 -43.70303 7886 ft 223 kts 122°
2026-05-07 20:47 -22.65801 -43.68973 7637 ft 218 kts 123°
2026-05-07 20:47 -22.66690 -43.67649 7392 ft 215 kts 122°
2026-05-07 20:47 -22.67565 -43.66347 7167 ft 212 kts 122°
2026-05-07 20:48 -22.68434 -43.65051 6898 ft 211 kts 122°
2026-05-07 20:48 -22.69286 -43.63782 6671 ft 209 kts 122°
2026-05-07 20:48 -22.70140 -43.62509 6431 ft 207 kts 122°
2026-05-07 20:48 -22.70981 -43.61256 6181 ft 205 kts 122°
2026-05-07 20:49 -22.71825 -43.59998 6082 ft 207 kts 122°
2026-05-07 20:49 -22.72383 -43.59165 6077 ft 209 kts 121°
2026-05-07 20:49 -22.72795 -43.58551 6045 ft 209 kts 122°
2026-05-07 20:49 -22.73645 -43.57283 6017 ft 204 kts 122°
2026-05-07 20:50 -22.74470 -43.56055 6015 ft 203 kts 121°
2026-05-07 20:50 -22.75305 -43.54808 6023 ft 205 kts 121°
2026-05-07 20:50 -22.76144 -43.53554 6024 ft 205 kts 121°
2026-05-07 20:50 -22.76770 -43.52200 6021 ft 201 kts 106°
2026-05-07 20:51 -22.77245 -43.50773 6015 ft 201 kts 104°
2026-05-07 20:51 -22.77706 -43.49347 6037 ft 204 kts 104°
2026-05-07 20:51 -22.78190 -43.47879 5926 ft 207 kts 105°
2026-05-07 20:51 -22.78672 -43.46435 5798 ft 204 kts 105°
2026-05-07 20:52 -22.79147 -43.45015 5643 ft 194 kts 105°
2026-05-07 20:52 -22.79604 -43.43670 5478 ft 188 kts 105°
2026-05-07 20:52 -22.80049 -43.42350 5343 ft 188 kts 105°
2026-05-07 20:52 -22.80498 -43.41027 5174 ft 185 kts 105°
2026-05-07 20:53 -22.80945 -43.39711 5024 ft 185 kts 105°
2026-05-07 20:53 -22.81390 -43.38410 4856 ft 185 kts 105°
2026-05-07 20:53 -22.81829 -43.37128 4710 ft 176 kts 105°
2026-05-07 20:53 -22.82242 -43.35925 4521 ft 169 kts 105°
2026-05-07 20:54 -22.82648 -43.34742 4303 ft 162 kts 105°
2026-05-07 20:54 -22.83030 -43.33631 4130 ft 153 kts 105°
2026-05-07 20:54 -22.83403 -43.32543 3908 ft 156 kts 105°
2026-05-07 20:54 -22.83783 -43.31433 3705 ft 157 kts 105°
2026-05-07 20:55 -22.84163 -43.30324 3490 ft 158 kts 105°
2026-05-07 20:55 -22.84542 -43.29221 3267 ft 157 kts 107°
2026-05-07 20:55 -22.84920 -43.28124 3047 ft 152 kts 106°
2026-05-07 20:55 -22.85283 -43.27065 2817 ft 150 kts 106°
2026-05-07 20:56 -22.85547 -43.25985 2609 ft 147 kts 96°
2026-05-07 20:56 -22.85701 -43.24884 2367 ft 148 kts 95°
2026-05-07 20:56 -22.85848 -43.23801 2096 ft 146 kts 95°
2026-05-07 20:56 -22.85998 -43.22720 1816 ft 143 kts 96°
2026-05-07 20:57 -22.86146 -43.21654 1549 ft 141 kts 96°
2026-05-07 20:57 -22.86293 -43.20609 1293 ft 142 kts 97°
2026-05-07 20:57 -22.86442 -43.19543 1019 ft 142 kts 97°
2026-05-07 20:57 -22.86619 -43.18483 880 ft 145 kts 102°
2026-05-07 20:58 -22.86982 -43.17451 616 ft 149 kts 126°
2026-05-07 20:58 -22.87715 -43.16725 551 ft 142 kts 148°
2026-05-07 20:58 -22.88678 -43.16393 354 ft 145 kts 177°
2026-05-07 20:58 -22.89650 -43.16394 172 ft 146 kts 174°
2026-05-07 20:59 -22.90625 -43.16317 42 ft 137 kts 175°
2026-05-07 20:59 -22.91370 -43.16263 19 ft 40 kts 176°
2026-05-07 20:59 -22.91515 -43.16278 19 ft 14 kts 236°
2026-05-07 20:59 -22.91524 -43.16351 19 ft 8 kts 269°
2026-05-07 21:00 -22.91501 -43.16402 22 ft 8 kts 317°
2026-05-07 21:00 -22.91464 -43.16438 21 ft 6 kts 317°
2026-05-07 21:00 -22.91436 -43.16467 21 ft 5 kts 317°
2026-05-07 21:00 -22.91411 -43.16492 21 ft 5 kts 323°
2026-05-07 21:01 -22.91378 -43.16501 21 ft 5 kts 355°
2026-05-07 21:01 -22.91344 -43.16504 21 ft 5 kts 357°
2026-05-07 21:01 -22.91316 -43.16519 21 ft 5 kts 305°
2026-05-07 21:01 -22.91317 -43.16555 21 ft 5 kts 265°
2026-05-07 21:02 -22.91318 -43.16575 21 ft 0 kts 266°